User: anonymous
Location: Unspecified
(0.0000°N, 0.0000°E)
Time: 10:33:39
(UTC+02:00)
Language:

AO-7 - Orbit

View from above orbital plane
View from above orbital plane
View from above satellite
View from above satellite

Ground track
Ground track

The orbit data is extracted from the following two-line orbital elements,

1 07530U 74089B   14213.06156185 -.00000016  00000-0  16904-3 0   280
2 07530 101.4755 193.4217 0011682 205.4030 198.9511 12.53605978817140
Epoch (UTC): 01 August 2014 01:28:38
Eccentricity: 0.0011682
inclination: 101.4755°
perigee height: 1440 km
apogee height: 1458 km
right ascension of ascending node: 193.4217°
argument of perigee: 205.4030°
revolutions per day: 12.53605978
mean anomaly at epoch: 198.9511°
orbit number at epoch: 81714

The dashed part of the orbit path shows where the satellite is in the earth's shadow,  

DLR